LFRCEGJJ

Guest
Details From LFRC - Cherbourg Maupertus
To EGJJ - Jersey
Flight Number -
Tags generated
Created
Modified
Stats Distance 39 nm / 72 km
Max Altitude 3,200 ft / 975 m
Waypoints 3
Social Downloads 2
Likes 0
Share

Download

Looking for another format? Having issues loading an existing format? Contact us
Advertisement - Login to hide

Notes

Basic altitude profile: - Ascent Rate: 2500ft/min - Ascent Speed: 250kts - Cruise Altitude: 35000ft - Cruise Speed: 420kts - Descent Rate: 1500ft/min - Descent Speed: 250kts Options: - Use NATs: yes - Use PACOTS: yes - Use low airways: yes - Use high airways: yes

Route

LFRC GULDA EGJJ

ID Type Via Altitude (ft/m) Position (lat/lon) Dist (leg/tot) Name
O LFRC APT - 0 / 0 49.65015 / -1.47026 - / 0 nm Cherbourg Maupertus
GULDA FIX - 3,200 / 975 49.38528 / -1.91750 23 / 23 nm
O EGJJ APT - 0 / 0 49.20796 / -2.19529 15 / 38 nm Jersey

Altitude Profile

Advertisement - Login to hide

LFRC

Details ICAO LFRC (CER)
Name Cherbourg Maupertus
Region France
Timezone Europe/Paris (UTC+2.0)
Stats Elevation 459 ft / 140 m (AMSL)
Location 49.650200° -1.470260°
Runways 1
Magnetic Variation 0.170° W

METAR

LFRC 270630Z AUTO 24024KT 9999 OVC011/// ///CB 15/14 Q1007 TEMPO 4000 SHRA BKN020TCU BECMG 27020G40KT

Decode

TAF

Not found

Departure Runways

ID Width Length Bearing (true/mag) Surface Threshold Overrun Markings Lighting
10 148 ft / 45 m 7,985 ft / 2,434 m 100.78° / 100.95° ASPHALT 0 ft / 0 m 0 ft / 0 m PREC-APP EDGE THRESHOLD
28 148 ft / 45 m 7,985 ft / 2,434 m 280.80° / 280.97° ASPHALT 0 ft / 0 m 0 ft / 0 m PREC-APP EDGE THRESHOLD

EGJJ

Details ICAO EGJJ (JER)
Name Jersey
Region United Kingdom
Timezone Europe/Jersey (UTC+1.0)
Stats Elevation 276 ft / 84 m (AMSL)
Location 49.208000° -2.195260°
Runways 1
Magnetic Variation 0.368° W

METAR

EGJJ 270620Z 28019G29KT 9999 FEW009 14/13 Q1008

Decode

TAF

Not found

Destination Runways

ID Width Length Bearing (true/mag) Surface Threshold Overrun Markings Lighting
08 150 ft / 46 m 5,579 ft / 1,700 m 82.72° / 83.09° ASPHALT 187 ft / 57 m 0 ft / 0 m UK-PREC-APP CENTERLINE EDGE THRESHOLD RAIL TDZ REIL-OMNI
26 150 ft / 46 m 5,579 ft / 1,700 m 262.74° / 263.11° ASPHALT 299 ft / 91 m 20 ft / 6 m UK-PREC-APP CENTERLINE EDGE THRESHOLD CALVERT-ILS TDZ REIL-OMNI

Approach Navaids

Runway Type Ident Frequency Range Bearing (true/mag) Slope Elevation
08 DME IJJ 110.90 MHz 18 nm / 33 km - - 287 ft / 87 m (AMSL)
08 GS IJJ 110.90 MHz 10 nm / 19 km 82.73° / 83.10 ° 3.00° 276 ft / 84 m (AMSL)
08 LOC-ILS IJJ 110.90 MHz 18 nm / 33 km 82.73° / 83.10 ° - 276 ft / 84 m (AMSL)
26 LOC-ILS IDD 110.30 MHz 18 nm / 33 km 262.73° / 263.10 ° - 276 ft / 84 m (AMSL)
26 DME IDD 110.30 MHz 18 nm / 33 km - - 289 ft / 88 m (AMSL)
26 GS IDD 110.30 MHz 10 nm / 19 km 262.73° / 263.10 ° 3.00° 276 ft / 84 m (AMSL)

Popular Alternatives